Date String (YYYY-MM-DD hh:mm:ss) UTC,Instrument flags,absolute air pressure of the measurement (hPa),sample flow rate (lpm),inlet stack bypass flow (lpm),air temperature of the measurement (°C),ambient temperature measured by the external sensor (°C),aerosol sample conditioner tube jacket temperature (°C),OPC LED temperature (°C),internal box temperature (°C),relative humidity of the measurement (%),span deviation,mass concentration of particles derived from Lorenz-Mie calculation of OPC scattering (μg/m³),mass concentration of particles derived from Lorenz-Mie calculation of OPC scattering (μg/m³),mass concentration of particles derived from Lorenz-Mie calculation of OPC scattering (μg/m³)
DateTimeUTC,F1_M11,P_M11,Q1_M11,Q2_M11,T1_M11,T2_M11,T3_M11,T4_M11,T5_M11,U1_M11,ZSPAN_M11,X0_M11,X2_M11,X1_M11
2024-06-08 01:00:00,SystemResetWarning,0825.0,4.99,000.00,028.9,028.4,000.0,037.1,030.8,016.1,0000.0,0009.31,0003.77,0003.10
2024-06-08 01:01:00,SystemResetWarning,0825.1,5.00,000.00,029.0,028.6,000.0,037.1,030.9,016.1,0000.0,0009.10,0003.76,0003.10
2024-06-08 01:02:00,SystemResetWarning,0825.1,5.00,000.00,029.1,028.8,000.0,037.1,031.0,015.9,0000.0,0008.91,0003.76,0003.11
2024-06-08 01:03:00,SystemResetWarning,0825.2,5.00,000.00,029.2,028.8,000.0,037.2,031.0,016.1,0000.0,0008.47,0003.74,0003.10
2024-06-08 01:04:00,SystemResetWarning,0825.2,5.00,000.00,029.1,027.1,000.0,037.3,030.2,016.2,0000.0,0008.22,0003.76,0003.10
2024-06-08 01:05:00,SystemResetWarning,0825.1,5.00,000.00,028.7,025.4,000.0,037.3,029.4,016.4,0000.0,0008.80,0003.82,0003.10
2024-06-08 01:06:00,SystemResetWarning,0825.2,5.02,000.00,028.5,025.9,000.0,037.2,029.5,016.6,0000.0,0008.49,0003.80,0003.09
2024-06-08 01:07:00,SystemResetWarning,0825.2,5.00,000.00,028.5,026.4,000.0,037.1,029.8,016.7,0000.0,0008.31,0003.82,0003.09
2024-06-08 01:08:00,SystemResetWarning,0825.3,5.00,000.00,028.6,026.8,000.0,037.1,030.0,017.0,0000.0,0008.67,0003.84,0003.10
2024-06-08 01:09:00,SystemResetWarning,0825.3,5.01,000.00,028.6,027.2,000.0,037.0,030.3,017.0,0000.0,0009.52,0003.79,0003.09
2024-06-08 01:10:00,SystemResetWarning,0825.3,5.00,000.00,028.7,027.6,000.0,037.0,030.4,016.9,0000.0,0009.50,0003.77,0003.05
2024-06-08 01:11:00,SystemResetWarning,0825.4,5.00,000.00,028.8,027.9,000.0,037.0,030.6,017.0,0000.0,0009.59,0003.74,0003.01
2024-06-08 01:12:00,SystemResetWarning,0825.4,4.99,000.00,028.9,028.2,000.0,037.0,030.7,017.2,0000.0,0010.36,0003.73,0002.98
2024-06-08 01:13:00,SystemResetWarning,0825.6,5.00,000.00,029.0,028.5,000.0,037.1,030.8,017.1,0000.0,0010.65,0003.72,0002.94
2024-06-08 01:14:00,SystemResetWarning,0825.6,5.00,000.00,029.1,028.7,000.0,037.1,031.0,017.1,0000.0,0010.47,0003.71,0002.88
2024-06-08 01:15:00,SystemResetWarning,0825.6,5.00,000.00,029.2,028.8,000.0,037.1,031.1,017.7,0000.0,0010.40,0003.67,0002.84
2024-06-08 01:16:00,SystemResetWarning,0825.5,4.99,000.00,029.2,028.7,000.0,037.2,030.9,018.8,0000.0,0010.68,0003.62,0002.76
2024-06-08 01:17:00,SystemResetWarning,0825.7,5.00,000.00,029.0,026.6,000.0,037.3,030.0,019.3,0000.0,0012.82,0003.62,0002.69
2024-06-08 01:18:00,SystemResetWarning,0825.7,5.01,000.00,028.6,025.3,000.0,037.3,029.4,019.8,0000.0,0014.82,0003.64,0002.61
2024-06-08 01:19:00,SystemResetWarning,0825.9,5.02,000.00,028.5,025.9,000.0,037.2,029.5,020.1,0000.0,0015.17,0003.65,0002.51
2024-06-08 01:20:00,SystemResetWarning,0826.0,4.99,000.00,028.5,026.4,000.0,037.1,029.8,020.2,0000.0,0014.56,0003.68,0002.43
2024-06-08 01:21:00,SystemResetWarning,0826.1,5.00,000.00,028.6,026.8,000.0,037.1,030.1,020.3,0000.0,0015.66,0003.70,0002.36
2024-06-08 01:22:00,SystemResetWarning,0826.2,5.00,000.00,028.6,027.3,000.0,037.0,030.3,020.4,0000.0,0015.86,0003.73,0002.32
2024-06-08 01:23:00,SystemResetWarning,0826.2,5.00,000.00,028.7,027.7,000.0,037.0,030.5,020.5,0000.0,0015.35,0003.73,0002.28
2024-06-08 01:24:00,SystemResetWarning,0826.3,5.00,000.00,028.8,028.0,000.0,037.0,030.6,020.6,0000.0,0016.61,0003.74,0002.24
2024-06-08 01:25:00,SystemResetWarning,0826.4,4.99,000.00,028.9,028.2,000.0,037.1,030.7,020.6,0000.0,0016.56,0003.78,0002.22
2024-06-08 01:26:00,SystemResetWarning,0826.5,5.00,000.00,028.9,028.5,000.0,037.1,030.8,020.3,0000.0,0016.70,0003.80,0002.20
2024-06-08 01:27:00,SystemResetWarning,0826.5,4.99,000.00,029.0,028.7,000.0,037.1,031.0,020.4,0000.0,0016.25,0003.80,0002.19
2024-06-08 01:28:00,SystemResetWarning,0826.5,5.00,000.00,029.1,028.8,000.0,037.2,031.1,020.6,0000.0,0015.31,0003.76,0002.18
2024-06-08 01:29:00,SystemResetWarning,0826.5,4.99,000.00,029.2,029.0,000.0,037.2,031.2,020.4,0000.0,0014.54,0003.74,0002.19
2024-06-08 01:30:00,SystemResetWarning,0826.4,5.01,000.00,029.3,029.1,000.0,037.3,031.2,020.3,0000.0,0014.50,0003.76,0002.21
2024-06-08 01:31:00,SystemResetWarning,0826.2,4.99,000.00,029.2,027.5,000.0,037.4,030.4,020.4,0000.0,0015.29,0003.78,0002.24
2024-06-08 01:32:00,SystemResetWarning,0826.2,5.01,000.00,028.8,025.2,000.0,037.4,029.3,020.8,0000.0,0016.56,0003.87,0002.28
2024-06-08 01:33:00,SystemResetWarning,0826.2,5.01,000.00,028.5,025.4,000.0,037.3,029.3,021.3,0000.0,0018.00,0003.99,0002.32
2024-06-08 01:34:00,SystemResetWarning,0826.3,5.00,000.00,028.5,026.0,000.0,037.2,029.6,021.4,0000.0,0019.38,0004.09,0002.35
2024-06-08 01:35:00,SystemResetWarning,0826.4,4.99,000.00,028.5,026.5,000.0,037.1,029.9,021.4,0000.0,0019.08,0004.19,0002.38
2024-06-08 01:36:00,SystemResetWarning,0826.6,5.00,000.00,028.6,027.0,000.0,037.1,030.2,021.4,0000.0,0020.32,0004.16,0002.39
2024-06-08 01:37:00,SystemResetWarning,0826.8,5.00,000.00,028.6,027.4,000.0,037.1,030.3,021.4,0000.0,0020.68,0004.13,0002.40
2024-06-08 01:38:00,SystemResetWarning,0826.8,4.99,000.00,028.7,027.7,000.0,037.1,030.5,021.4,0000.0,0020.62,0004.10,0002.41
2024-06-08 01:39:00,SystemResetWarning,0826.9,5.00,000.00,028.8,028.0,000.0,037.1,030.6,021.3,0000.0,0019.64,0004.09,0002.41
2024-06-08 01:40:00,SystemResetWarning,0826.9,5.00,000.00,028.9,028.3,000.0,037.1,030.8,021.4,0000.0,0018.68,0004.12,0002.41
2024-06-08 01:41:00,SystemResetWarning,0827.0,5.00,000.00,029.0,028.5,000.0,037.1,030.9,022.1,0000.0,0018.35,0004.02,0002.40
2024-06-08 01:42:00,SystemResetWarning,0827.0,4.98,000.00,029.1,028.7,000.0,037.2,031.0,022.8,0000.0,0018.45,0003.98,0002.39
2024-06-08 01:43:00,SystemResetWarning,0827.1,5.00,000.00,029.1,028.8,000.0,037.2,031.1,024.5,0000.0,0017.60,0003.95,0002.37
2024-06-08 01:44:00,SystemResetWarning,0827.1,5.00,000.00,029.2,029.0,000.0,037.2,031.2,024.8,0000.0,0016.99,0003.87,0002.34
2024-06-08 01:45:00,SystemResetWarning,0827.1,5.01,000.00,029.3,029.0,000.0,037.3,031.2,024.9,0000.0,0017.96,0003.86,0002.30
2024-06-08 01:46:00,SystemResetWarning,0827.0,4.99,000.00,029.2,027.6,000.0,037.4,030.5,025.4,0000.0,0019.93,0003.84,0002.27
2024-06-08 01:47:00,SystemResetWarning,0826.9,5.02,000.00,028.9,026.4,000.0,037.4,029.9,026.8,0000.0,0020.78,0003.83,0002.26
2024-06-08 01:48:00,SystemResetWarning,0826.9,4.99,000.00,028.8,026.7,000.0,037.4,030.0,026.5,0000.0,0020.00,0003.84,0002.23
2024-06-08 01:49:00,SystemResetWarning,0826.9,4.99,000.00,028.8,027.1,000.0,037.3,030.2,025.9,0000.0,0019.99,0003.83,0002.19
2024-06-08 01:50:00,SystemResetWarning,0826.9,5.01,000.00,028.9,027.4,000.0,037.2,030.5,024.6,0000.0,0020.14,0003.78,0002.14
2024-06-08 01:51:00,SystemResetWarning,0826.9,5.01,000.00,029.0,027.8,000.0,037.2,030.7,024.7,0000.0,0020.33,0003.73,0002.09
2024-06-08 01:52:00,SystemResetWarning,0826.9,4.99,000.00,029.0,028.1,000.0,037.2,030.8,024.9,0000.0,0019.68,0003.68,0002.04
2024-06-08 01:53:00,SystemResetWarning,0827.0,4.99,000.00,029.1,028.3,000.0,037.2,030.9,025.2,0000.0,0018.95,0003.60,0002.00
2024-06-08 01:54:00,SystemResetWarning,0826.9,5.00,000.00,029.2,028.5,000.0,037.3,031.0,024.5,0000.0,0018.13,0003.50,0001.93
2024-06-08 01:55:00,SystemResetWarning,0826.9,5.00,000.00,029.3,028.7,000.0,037.3,031.1,023.4,0000.0,0016.65,0003.35,0001.90
2024-06-08 01:56:00,SystemResetWarning,0826.8,5.00,000.00,029.4,028.9,000.0,037.3,031.2,023.3,0000.0,0013.97,0003.15,0001.84
2024-06-08 01:57:00,SystemResetWarning,0826.9,5.00,000.00,029.4,029.0,000.0,037.4,031.3,022.7,0000.0,0011.41,0002.96,0001.81
2024-06-08 01:58:00,SystemResetWarning,0826.8,4.99,000.00,029.4,028.0,000.0,037.4,030.8,022.7,0000.0,0009.08,0002.80,0001.76
2024-06-08 01:59:00,SystemResetWarning,0826.8,5.01,000.00,029.1,026.3,000.0,037.5,030.0,023.4,0000.0,0009.38,0002.64,0001.72
